This demonstration page uses our WeatherBlox Daily Observations layout. Learn more.

Left ArrowRight Arrow

34.16533, -84.80231

Hourly Observations for July 22, 2020

Temp ( °F °C ) Dew Point ( °F °C ) Humidity (%) Winds ( mph kmh ) Pressure ( in mb ) Visibility ( mi km ) Precip ( " mm )
12:53 am 00:53 Mostly Clear 73 22.8 71 21.7 94 94 Calm 30.07 1018 8 13 0.00 0.00
1:53 am 01:53 Clear 73 22.8 71 21.7 94 94 Calm 30.08 1019 7 11 0.00 0.00
2:53 am 02:53 Clear 74 23.3 71 21.7 91 91 ENE 3 6 30.06 1018 10 16 0.00 0.00
3:53 am 03:53 Clear 74 23.3 71 21.7 91 91 Calm 30.06 1018 10 16 0.00 0.00
4:53 am 04:53 Clear 74 23.3 71 21.7 91 91 NE 3 6 30.06 1018 10 16 0.00 0.00
5:53 am 05:53 Partly Cloudy 73 22.8 71 21.7 94 94 Calm 30.09 1019 10 16 0.00 0.00
6:53 am 06:53 Sunny 73 22.8 70 21.1 90 90 Calm 30.10 1019 9 14 0.00 0.00
7:53 am 07:53 Sunny 75 23.9 71 21.7 88 88 Calm 30.11 1020 10 16 0.00 0.00
8:53 am 08:53 Mostly Sunny 76 24.4 72 22.2 88 88 Calm 30.12 1020 10 16 0.00 0.00
9:53 am 09:53 Sunny 79 26.1 73 22.8 82 82 SE 5 7 30.12 1020 10 16 0.00 0.00
10:53 am 10:53 Partly Cloudy 84 28.9 74 23.3 72 72 VRB 3 6 30.13 1020 10 16 0.00 0.00
11:53 am 11:53 Cloudy 86 30 74 23.3 67 67 Calm 30.12 1020 10 16 0.00 0.00
12:53 pm 12:53 Mostly Sunny 87 30.6 73 22.8 63 63 S 5 7 30.11 1020 10 16 0.00 0.00
1:43 pm 13:43 Mostly Cloudy with Nearby Thunderstorms 89 31.7 72 22.2 57 57 NNE 3 6 30.07 1018 10 16 0.00 0.00
1:53 pm 13:53 Mostly Cloudy with Nearby Thunderstorms 91 32.8 71 21.7 52 52 ENE 3 6 30.08 1019 10 16 0.00 0.00
2:26 pm 14:26 Partly Cloudy with Thunderstorms 89 31.7 74 23.3 61 61 VRB 7 11 30.06 1018 10 16 0.00 0.00
2:53 pm 14:53 Mostly Cloudy with Thunderstorms 85 29.4 71 21.7 63 63 S 9 15 30.08 1019 10 16 0.00 0.00
3:34 pm 15:34 Partly Cloudy with Nearby Thunderstorms 81 27.2 69 20.6 67 67 Calm 30.07 1018 10 16 0.00 0.00
3:53 pm 15:53 Mostly Sunny 80 26.7 70 21.1 71 71 Calm 30.06 1018 10 16 0.00 0.00
5:53 pm 17:53 Sunny 81 27.2 73 22.8 77 77 N 6 9 30.03 1017 10 16 0.00 0.00
6:53 pm 18:53 Sunny 85 29.4 70 21.1 61 61 VRB 5 7 30.04 1017 10 16 0.00 0.00
7:53 pm 19:53 Sunny 82 27.8 70 21.1 67 67 Calm 30.06 1018 10 16 0.00 0.00
8:53 pm 20:53 Mostly Clear 79 26.1 71 21.7 77 77 Calm 30.07 1018 10 16 0.00 0.00
9:53 pm 21:53 Mostly Cloudy 79 26.1 71 21.7 77 77 Calm 30.09 1019 10 16 0.00 0.00
10:53 pm 22:53 Partly Cloudy 77 25 70 21.1 79 79 Calm 30.11 1020 10 16 0.00 0.00
11:53 pm 23:53 Mostly Clear 75 23.9 71 21.7 88 88 Calm 30.11 1020 10 16 0.00 0.00

Powered by AerisWeather